This is the latest recevied weather packets stored in our database for station/object W4KAB. If no packets are shown the sender has not sent any weather packets the latest 10 day(s).
| Time | Temp. | Humidity | Pressure | Rain* | Wind** | Luminosity | Snow |
|---|---|---|---|---|---|---|---|
| 1778104244 | 21.11° C | 82% | 1013.6 hPa | 0 mm | - | 29 W/m² | - |
| 1778103941 | 21.67° C | 81% | 1014.1 hPa | 0 mm | - | 33 W/m² | - |
| 1778103639 | 21.67° C | 81% | 1014.1 hPa | 0 mm | - | 38 W/m² | - |
| 1778103337 | 21.67° C | 80% | 1013.6 hPa | 0 mm | - | 41 W/m² | - |
| 1778103033 | 21.67° C | 81% | 1013.5 hPa | 0 mm | - | 31 W/m² | - |
| 1778102730 | 21.67° C | 81% | 1013.5 hPa | 0 mm | - | 40 W/m² | - |
| 1778102425 | 21.67° C | 80% | 1013.5 hPa | 0 mm | - | 65 W/m² | - |
| 1778102121 | 21.67° C | 81% | 1013.5 hPa | 0 mm | - | 65 W/m² | - |
| 1778101819 | 21.67° C | 81% | 1013.4 hPa | 0 mm | - | 50 W/m² | - |
| 1778101515 | 21.67° C | 80% | 1013.2 hPa | 0 mm | - | 49 W/m² | - |
| 1778101212 | 22.22° C | 80% | 1012.9 hPa | 0 mm | - | 67 W/m² | - |
| 1778100909 | 22.22° C | 79% | 1012.7 hPa | 0 mm | - | 72 W/m² | - |
| 1778100604 | 22.22° C | 79% | 1012.6 hPa | 0 mm | - | 72 W/m² | - |
| 1778100302 | 22.22° C | 79% | 1012.6 hPa | 0 mm | - | 93 W/m² | - |
| 1778099999 | 22.22° C | 78% | 1013 hPa | 0 mm | - | 120 W/m² | - |
| 1778099697 | 22.22° C | 78% | 1012.9 hPa | 0 mm | - | 95 W/m² | - |
| 1778099393 | 22.22° C | 79% | 1013.2 hPa | 0 mm | - | 326 W/m² | - |
| 1778099091 | 22.22° C | 77% | 1013.6 hPa | 0 mm | - | 355 W/m² | - |
| 1778098787 | 21.67° C | 80% | 1013.8 hPa | 0 mm | - | 355 W/m² | - |
| 1778098484 | 22.22° C | 77% | 1013.5 hPa | 0 mm | - | 365 W/m² | - |
| 1778098181 | 22.22° C | 78% | 1013.8 hPa | 0 mm | - | 276 W/m² | - |
| 1778097877 | 22.22° C | 79% | 1013.5 hPa | 0 mm | - | 264 W/m² | - |
| 1778097573 | 21.67° C | 80% | 1013.8 hPa | 0 mm | - | 223 W/m² | - |
| 1778097271 | 21.67° C | 80% | 1014.1 hPa | 0 mm | - | 125 W/m² | - |
| 1778096967 | 21.67° C | 80% | 1014 hPa | 0 mm | - | 398 W/m² | - |
* Rain latest hour (hover to see other rain measurements)
** Current wind speed in m/s (hover to see current wind gust speed)